Simultaneous Nadir Overpasses (SNOs) Predictions

Prediction of SNOs between METOP-B and NOAA-19 Satellite Orbit:

Table of predicted SNOs for the next 14.0 days since TLE Epoch: 7/26/2018
Index Date (METOP-B) Time (METOP-B) Lat,Lon (METOP-B) SZA (METOP-B ) Date (NOAA-19) Time (NOAA-19) Lat,Lon (NOAA-19) SZA (NOAA-19 ) Distance(km) Time Diff (sec)
1 07/31/2018 01:06:47 -78.54, -6.17 119.69 07/31/2018 01:05:38 -78.53, -6.15 119.71 1.97 69
2 07/31/2018 01:57:28 78.52, 161.04 60.30 07/31/2018 01:56:44 78.54, 160.99 60.31 1.96 44
3 07/31/2018 02:48:09 -78.52, -31.62 119.69 07/31/2018 02:47:39 -78.52, -31.63 119.70 0.30 30
4 07/31/2018 03:38:50 78.50, 135.59 60.30 07/31/2018 03:38:44 78.50, 135.76 60.30 3.67 6
5 07/31/2018 04:29:31 -78.51, -57.07 119.70 07/31/2018 04:29:40 -78.52, -57.11 119.68 1.62 9
6 07/31/2018 05:20:12 78.49, 110.14 60.29 07/31/2018 05:20:45 78.49, 110.28 60.31 3.18 33
7 07/31/2018 06:10:53 -78.49, -82.52 119.70 07/31/2018 06:11:41 -78.51, -82.58 119.67 3.41 48
8 07/31/2018 07:01:33 78.51, 84.92 60.33 07/31/2018 07:02:46 78.49, 84.80 60.33 3.08 73




NCC Satellite Simultaneous Nadir Overpasses (SNOs) Prediction Service
